Regional Weather Roundup
Issued by NWS

Home | Current Version | Previous Version | Graphics & Text | Print | Product List | Glossary On
Versions: 1 2 3 4 5 6 7 8 9 10 11 12 13 14 15 16 17 18 19 20 21 22 23 24 25 26 27 28 29 30 31 32 33 34 35 36 37 38 39 40 41 42 43 44 45 46 47 48 49 50
000
ASUS45 KSLC 290810
RWRUT

UTAH REGIONAL WEATHER ROUNDUP
NATIONAL WEATHER SERVICE SALT LAKE CITY UT
200 AM MDT TUE JUL 29 2014

UTZ001>011-023>025-290900-

NORTHERN UTAH

CITY           SKY/WX    TMP DP  RH WIND       PRES   REMARKS
HILL AFB       LGT RAIN  67  57  70 CALM      30.23F
LOGAN          CLOUDY    65  60  84 NE3       30.23F
OGDEN          CLOUDY    66  63  90 NW5       30.21F
PROVO AIRPORT  CLOUDY    70  63  78 NW10      30.24S
SALT LAKE CITY CLOUDY    67  63  87 W5        30.21F
VERNAL         CLOUDY    65  59  81 CALM      30.29R
WENDOVER       CLOUDY    72  59  64 NE6       30.21S
HEBER CITY     CLOUDY    63  59  88 CALM      30.29F
WEST JORDAN    CLOUDY    68  68 100 CALM      30.24F

$$

UTZ012>022-026-027-290900-

SOUTHERN UTAH

CITY           SKY/WX    TMP DP  RH WIND       PRES   REMARKS
BRYCE CANYON   PTCLDY    54  52  93 W7        30.43F
CEDAR CITY     PTCLDY    64  54  69 SE5       30.27F
MILFORD        MOCLDY    71  53  52 SW12      30.21S
MOAB/CYNLANDS  CLEAR     64  63  96 SE13      30.25F
PRICE          CLOUDY    65  57  75 NE8       30.32S
ST GEORGE      CLOUDY    79  57  47 SE7       30.11S
KANAB            N/A     63  59  88 CALM      30.29R

$$

REGIONAL REPORTS     COLORADO/ARIZONA

CITY           SKY/WX    TMP DP  RH WIND       PRES   REMARKS
CRAIG, CO      CLOUDY    56  54  93 CALM      30.33F
GRAND JUNCTION LGT RAIN  63  62  97 NW10      30.31S
RIFLE          CLOUDY    63  60  90 CALM      30.31F
MONTROSE       CLOUDY    61  59  93 N3        30.37F
CORTEZ         RAIN      62  61  96 CALM      30.36S
PAGE, AZ       PTCLDY    75  55  49 S5        30.18F
GRAND CANYON   PTCLDY    55  51  86 CALM      30.38F
KINGMAN        CLEAR     72  60  66 E9        30.14S
FLAGSTAFF      PTCLDY    57  52  83 CALM      30.41F

$$

REGIONAL REPORTS    NEVADA/IDAHO/WYOMING

CITY           SKY/WX    TMP DP  RH WIND       PRES   REMARKS
LAS VEGAS, NV  MOCLDY    82  64  54 S9        30.00S
ELY            CLOUDY    60  53  77 S6        30.32F
ELKO           CLOUDY    68  52  56 E5        30.22F
POCATELLO, ID  MOCLDY    63  60  90 NE6       30.23F
BURLEY         CLOUDY    69  56  62 CALM      30.16F
EVANSTON, WY   CLOUDY    57  54  89 CALM      30.38S
ROCK SPRINGS   CLOUDY    67  46  47 SW12      30.33S

$$



USA.gov is the U.S. government's official web portal to all federal, state and local government web resources and services.